Погода в Городовиковске

Хотите узнать прогноз погоды в Городовиковске? Тогда Вам сюда: Погода в Городовиковске

Поиск расширенной информации на нашем сайте:

Полезная информация:

Новости сайта



02.01.2020
Опубликован Долгосрочный прогноз погоды по городам России и ближнего зарубежья на январь 2020 года.
Карты: Прогноз на январь и февраль 2020 года, Сравнение прогнозируемой аномалии приземной температуры воздуха на январь 2020 года по разным моделям.




Погода в Городовиковске - сегодня

Время (UTC), дата Ветер
(°,м/с) 
Видим.   Явления Облачность Т
(°С)
Тd
(°С)
f(%) Тe
(°С)
Pmin
(гПа)
dP
(гПа)
Po
(мм)
O2
(г/м3)
Тmin Tmax R s Состояние
почвы
15 18.10.20 270 (З) 2{10}  20000 м    10/0 средняя, верхняя 
[Ac trans|Cc]
+27 +3.4 22 +27  1008.4  -0.1  749  274    +30       
18 18.10.20 тихо ()   20000 м    8/8 600 м 
[Sc]
+17.5 +12.1 71 +21  1014.8  0.5  753  283           
21 18.10.20 320 (СЗ) 1{11}  20000 м    4/4 600 м 
[Sc]
+17.2 +11.9 71 +23  1016  1.2  754  284           
00 19.10.20 120 (ЮВ) 20000 м    6/4 600 м верхняя 
[Sc|Ci fib]
+15.1 +11.6 80 +19  1016.1  0.1  754  286           
03 19.10.20 тихо ()   20000 м    10/10 600 м 
[Sc]
+13.8 +10.8 82 +16  1016.3  0.1  754  287  +13.8        сухая 
06 19.10.20 050 (СВ) 20000 м    8/6 600 м средняя 
[Sc|Ac trans]
+15.7 +13 84 +22  1017.2  755  285           
09 19.10.20 100 (В) 20000 м    10/4 600 м средняя, верхняя 
[Sc|Ac trans|Cc]
+20.4 +11.1 55 +23  1016.4  -0.7  755  281           
12 19.10.20 360 (С) 10 км  слаб. ливневой дождь  10/8 300 м кучево-дожд., средняя 
[Cb calv|Ac As]
+17.2 +12.4 73 +22  1016.4  -0.1  755  284           
15 19.10.20 080 (В) 4000 м  дымка{ливн. осадки}  10/10 600 м кучево-дожд. 
[Cb calv]
+14.6 +13.5 93 +21  1015.1  -1.4  754  285    +21.1     
18 19.10.20 010 (С) 4{11}  4000 м  в посл. час ливневой дождь  10/10 600 м кучево-дожд. 
[Cb calv]
+11.5 +10.7 95 +13  1017.6  2.4  755  290           
21 19.10.20 360 (С) 1{10}  20000 м  в посл. час ливневой дождь  10/10 600 м кучево-дожд. 
[Cb calv]
+11 +9.9 93 +13  1021  3.3  758  292           
00 20.10.20 290 (З) 4000 м  слаб. ливневой дождь  10/10 300 м кучево-дожд. 
[Cb calv]
+11 +10.1 94 +13  1023.1  759  292           
03 20.10.20 230 (ЮЗ) 4000 м  дымка{ливн. осадки}  10/10 600 м 
[Sc diur, vesp]
+10.5 +9.7 95 +13  1023.8  0.7  760  293  +10.4    12     
06 20.10.20 270 (З) 20000 м  {ливн. осадки}  10/10 600 м 
[Sc diur, vesp|Ac As]
+11.8 +10 89 +13  1025  1.2  761  292           
09 20.10.20 310 (СЗ) 20000 м    9/4 600 м средняя, верхняя 
[Sc|Ac trans|Ci]
+14.8 +7 60 +15  1024.7  -0.1  761  290           
12 20.10.20 280 (З) 20000 м    8/4 600 м средняя, верхняя 
[Cu Sc|Ac trans|Ci]
+15.1 +3.5 46 +15  1024.2  -0.5  760  290           
15 20.10.20 300 (СЗ) 20000 м    4/1 600 м средняя 
[Sc|Ac trans]
+10.5 +5.5 71 +12  1025  0.6  761  294    +15.7       
18 20.10.20 тихо ()   20000 м    ясно 
+5.8 +4.7 93 +6  1026.1  761  300           
21 20.10.20 300 (СЗ) 4000 м  дымка  ясно 
+3.5 +2.9 96 +4  1027  0.8  762  303           
00 21.10.20 190 (Ю) 4000 м  дымка  ясно 
+2.5 +2 96 +3  1027.7  0.7  763  304           
03 21.10.20 220 (ЮЗ) 4000 м  дымка  4/4 600 м 
[Sc]
+1.6 +1.1 96 +2  1029.1  1.3  764  306  +1.6         
06 21.10.20 300 (СЗ) 20000 м    ясно 
+7.8 +3.3 73 +8  1030.4  1.5  765  299  +1.1         
09 21.10.20 280 (З) 20000 м    ясно 
+12.2 +1.4 48 +13  1029.7  -0.5  764  295           
12 21.10.20 280 (З) 20000 м    10/0 верхняя 
[Ci fib]
+13.2 +0.7 42 +14  1028.5  -1.2  763  293           
15 21.10.20 080 (В) 20000 м    10/4 600 м верхняя 
[Sc|Ci fib]
+8.1 +2.6 68 +9  1028.1  -0.5  763  298    +13.7       
Время (UTC), дата Ветер
(°,м/с) 
Видим.   Явления Облачность Т
(°С)
Тd
(°С)
f(%) Тe
(°С)
Pmin
(гПа)
dP
(гПа)
Po
(мм)
O2
(г/м3)
Тmin Tmax R s Состояние
почвы

Для получения пояснительной информации подведите курсор к названию столбца.

ПОГОДА в Городовиковске - архив

Всё, что Вы хотите узнать о погоде в Городовиковске - удобно и подробно!

Выберите нужную дату (начиная с 1 января 2019* года) и нажмите кнопку "Найти".
Будут отображены архивные сводки погоды по пункту Городовиковск, начиная с указанной даты.


Отображать данные в формате CSV (для использования в таблицах Excel)


Внимание! Наш архив погоды предназначен исключительно для личного некоммерческого использования в познавательных целях. Если Вам необходимы официальные справки о состоянии погоды (для производственных, юридических, коммерческих и т.п. целей), обращайтесь в органы Росгидромета.

*Примечание: данная дата относится к архиву по метеостанциям СССР (Россия, СНГ, Балтия).
Архив по метеостанциям Зарубежной Европы и Азии (кроме Китая) хранится 10 дней, по другим регионам земного шара (Китай, Африка, Америка, Австралия, Океания) - 1 день.

Городовиковск - район местоположения метеостанции


Название, широта, долгота, высота метеостанции:
Городовиковск 46.1°ш. 41.1°д. 86 м над ур. моря [Российская Федерация]

Дополнительная информация

В oтличие oт бoльшинства пoгoдных сайтoв мы публикуем пoдрoбную метеoинфoрмацию в детальнoм прoфессиoнальнoм фoрмате.

Характеристики температуры и влажнoсти вoздуха измеряются на высoте 2 м в тени вдали oт зданий и деревьев.
Скoрoсть ветра измеряется на высoте 10 м (на урoвне рoста челoвека скoрoсть ветра ниже в 1.5-2 раза). Если метеoстанция нахoдится в гoрoде или в лесу, тo скoрoсть ветра занижена на 2-4 м/с пo сравнению с oткрытым местoм. Скoрoсть ветра над акватoриями крупных рек и oзёр, а также на вершинах хoлмoв на 2-5 м/с выше, чем в oбычных услoвиях.
Атмoсфернoе давление в разных тoчках местнoсти мoжет значительнo oтличаться oт давления на метеoстанции, в зависимoсти oт услoвий рельефа (при пoдъёме на 10 м давление пoнижается примернo на 1 мм рт.ст.).